Time,TemperatureF,DewpointF,PressureIn,WindDirection,WindDirectionDegrees,WindSpeedMPH,WindSpeedGustMPH,Humidity,HourlyPrecipIn,Conditions,Clouds,dailyrainin,SoftwareType,DateUTC
2013-02-13 00:01:00,15.3,11.6,30.31,NE,52,2.0,2.0,85,0.00,,,0.00,LWC V2.10 B1813,2013-02-13 09:01:00,
2013-02-13 00:06:00,15.4,11.7,30.31,NE,52,1.0,2.0,85,0.00,,,0.00,LWC V2.10 B1813,2013-02-13 09:06:00,
2013-02-13 00:11:00,15.4,11.4,30.31,NE,51,0.0,1.0,84,0.00,,,0.00,LWC V2.10 B1813,2013-02-13 09:11:00,
2013-02-13 00:16:00,15.5,11.8,30.31,NE,52,1.0,2.0,85,0.00,,,0.00,LWC V2.10 B1813,2013-02-13 09:16:00,
2013-02-13 00:21:00,15.6,11.6,30.31,NE,52,1.0,2.0,84,0.00,,,0.00,LWC V2.10 B1813,2013-02-13 09:21:00,
2013-02-13 00:26:00,15.7,11.7,30.31,NE,52,1.0,2.0,84,0.00,,,0.00,LWC V2.10 B1813,2013-02-13 09:26:00,
2013-02-13 00:31:00,15.7,11.7,30.31,NE,52,2.0,3.0,84,0.00,,,0.00,LWC V2.10 B1813,2013-02-13 09:31:00,
2013-02-13 00:36:00,15.5,11.5,30.31,NE,52,2.0,3.0,84,0.00,,,0.00,LWC V2.10 B1813,2013-02-13 09:36:00,
2013-02-13 00:41:00,15.4,11.2,30.32,NE,52,1.0,3.0,83,0.00,,,0.00,LWC V2.10 B1813,2013-02-13 09:41:00,
2013-02-13 00:46:00,15.4,11.4,30.31,NE,51,2.0,3.0,84,0.00,,,0.00,LWC V2.10 B1813,2013-02-13 09:46:00,
2013-02-13 00:51:00,15.4,11.4,30.31,NE,51,1.0,3.0,84,0.00,,,0.00,LWC V2.10 B1813,2013-02-13 09:51:00,
2013-02-13 00:56:00,15.5,11.3,30.31,NE,51,0.0,2.0,83,0.00,,,0.00,LWC V2.10 B1813,2013-02-13 09:56:00,
2013-02-13 01:01:00,15.6,11.6,30.31,NE,51,0.0,1.0,84,0.00,,,0.00,LWC V2.10 B1813,2013-02-13 10:01:00,
2013-02-13 01:06:00,15.7,11.7,30.31,NE,51,0.0,0.0,84,0.00,,,0.00,LWC V2.10 B1813,2013-02-13 10:06:00,
2013-02-13 01:11:00,15.8,11.6,30.31,NE,51,1.0,2.0,83,0.00,,,0.00,LWC V2.10 B1813,2013-02-13 10:11:00,
2013-02-13 01:16:00,15.9,11.7,30.31,NE,51,0.0,2.0,83,0.00,,,0.00,LWC V2.10 B1813,2013-02-13 10:16:00,
2013-02-13 01:21:00,16.1,11.9,30.31,NE,51,0.0,0.0,83,0.00,,,0.00,LWC V2.10 B1813,2013-02-13 10:21:00,
2013-02-13 01:26:00,16.1,11.6,30.31,NE,51,0.0,0.0,82,0.00,,,0.00,LWC V2.10 B1813,2013-02-13 10:26:00,
2013-02-13 01:31:00,15.9,11.4,30.31,NE,51,0.0,1.0,82,0.00,,,0.00,LWC V2.10 B1813,2013-02-13 10:31:00,
2013-02-13 01:36:00,15.8,11.3,30.32,NE,51,0.0,0.0,82,0.00,,,0.00,LWC V2.10 B1813,2013-02-13 10:36:00,
2013-02-13 01:41:00,15.8,11.6,30.31,NE,51,0.0,1.0,83,0.00,,,0.00,LWC V2.10 B1813,2013-02-13 10:41:00,
2013-02-13 01:46:00,15.7,11.5,30.31,NE,51,1.0,1.0,83,0.00,,,0.00,LWC V2.10 B1813,2013-02-13 10:46:00,
2013-02-13 01:51:00,15.7,11.5,30.31,NE,51,3.0,3.0,83,0.00,,,0.00,LWC V2.10 B1813,2013-02-13 10:51:00,
2013-02-13 01:56:00,15.7,11.5,30.31,NE,51,2.0,2.0,83,0.00,,,0.00,LWC V2.10 B1813,2013-02-13 10:56:00,
2013-02-13 02:01:00,15.8,11.6,30.31,NE,51,3.0,4.0,83,0.00,,,0.00,LWC V2.10 B1813,2013-02-13 11:01:00,
2013-02-13 02:06:00,15.8,11.6,30.31,NE,50,3.0,4.0,83,0.00,,,0.00,LWC V2.10 B1813,2013-02-13 11:06:00,
2013-02-13 02:11:00,15.9,11.7,30.31,NE,49,0.0,2.0,83,0.00,,,0.00,LWC V2.10 B1813,2013-02-13 11:11:00,
2013-02-13 02:16:00,15.8,11.3,30.31,NE,49,1.0,2.0,82,0.00,,,0.00,LWC V2.10 B1813,2013-02-13 11:16:00,
2013-02-13 02:21:00,15.8,11.3,30.31,NE,49,1.0,4.0,82,0.00,,,0.00,LWC V2.10 B1813,2013-02-13 11:21:00,
2013-02-13 02:26:00,16.0,11.5,30.31,NE,49,1.0,3.0,82,0.00,,,0.00,LWC V2.10 B1813,2013-02-13 11:26:00,
2013-02-13 02:31:00,16.0,11.5,30.31,NE,49,1.0,2.0,82,0.00,,,0.00,LWC V2.10 B1813,2013-02-13 11:31:00,
2013-02-13 02:36:00,15.8,11.0,30.31,NE,49,3.0,3.0,81,0.00,,,0.00,LWC V2.10 B1813,2013-02-13 11:36:00,
2013-02-13 02:41:00,15.7,11.2,30.32,NE,47,1.0,2.0,82,0.00,,,0.00,LWC V2.10 B1813,2013-02-13 11:41:00,
2013-02-13 02:46:00,15.8,11.0,30.31,NE,47,1.0,2.0,81,0.00,,,0.00,LWC V2.10 B1813,2013-02-13 11:46:00,
2013-02-13 02:51:00,15.8,11.0,30.31,NE,46,1.0,2.0,81,0.00,,,0.00,LWC V2.10 B1813,2013-02-13 11:51:00,
2013-02-13 02:56:00,15.7,11.2,30.31,NE,46,3.0,4.0,82,0.00,,,0.00,LWC V2.10 B1813,2013-02-13 11:56:00,
2013-02-13 03:01:00,15.7,11.2,30.31,NE,46,2.0,3.0,82,0.00,,,0.00,LWC V2.10 B1813,2013-02-13 12:01:00,
2013-02-13 03:06:00,15.7,11.2,30.31,NE,54,1.0,2.0,82,0.00,,,0.00,LWC V2.10 B1813,2013-02-13 12:06:00,
2013-02-13 03:11:00,15.9,11.4,30.31,NE,45,4.0,5.0,82,0.00,,,0.00,LWC V2.10 B1813,2013-02-13 12:11:00,
2013-02-13 03:16:00,16.1,11.6,30.31,NE,41,3.0,5.0,82,0.00,,,0.00,LWC V2.10 B1813,2013-02-13 12:16:00,
2013-02-13 03:21:00,16.6,11.8,30.31,NE,51,4.0,5.0,81,0.00,,,0.00,LWC V2.10 B1813,2013-02-13 12:21:00,
2013-02-13 03:26:00,17.2,11.8,30.31,NE,56,2.0,3.0,79,0.00,,,0.00,LWC V2.10 B1813,2013-02-13 12:26:00,
2013-02-13 03:31:00,17.2,11.8,30.31,NE,56,2.0,3.0,79,0.00,,,0.00,LWC V2.10 B1813,2013-02-13 12:31:00,
2013-02-13 03:36:00,17.0,11.3,30.31,NE,56,1.0,3.0,78,0.00,,,0.00,LWC V2.10 B1813,2013-02-13 12:36:00,
2013-02-13 03:41:00,16.8,11.2,30.31,NE,56,1.0,3.0,78,0.00,,,0.00,LWC V2.10 B1813,2013-02-13 12:41:00,
2013-02-13 03:46:00,16.6,11.0,30.31,NE,56,1.0,2.0,78,0.00,,,0.00,LWC V2.10 B1813,2013-02-13 12:46:00,
2013-02-13 03:51:00,16.3,11.0,30.31,NE,56,0.0,0.0,79,0.00,,,0.00,LWC V2.10 B1813,2013-02-13 12:51:00,
2013-02-13 03:56:00,16.1,11.0,30.30,NE,51,3.0,4.0,80,0.00,,,0.00,LWC V2.10 B1813,2013-02-13 12:56:00,
2013-02-13 04:01:00,16.1,11.0,30.30,NE,49,3.0,4.0,80,0.00,,,0.00,LWC V2.10 B1813,2013-02-13 13:01:00,
2013-02-13 04:06:00,16.5,11.4,30.30,NE,53,2.0,4.0,80,0.00,,,0.00,LWC V2.10 B1813,2013-02-13 13:06:00,
2013-02-13 04:11:00,16.8,11.4,30.31,NE,53,2.0,3.0,79,0.00,,,0.00,LWC V2.10 B1813,2013-02-13 13:11:00,
2013-02-13 04:16:00,16.8,11.4,30.31,NE,52,2.0,4.0,79,0.00,,,0.00,LWC V2.10 B1813,2013-02-13 13:16:00,
2013-02-13 04:21:00,16.8,11.2,30.31,NE,52,2.0,3.0,78,0.00,,,0.00,LWC V2.10 B1813,2013-02-13 13:21:00,
2013-02-13 04:26:00,16.7,11.3,30.30,NE,52,1.0,3.0,79,0.00,,,0.00,LWC V2.10 B1813,2013-02-13 13:26:00,
2013-02-13 04:31:00,16.6,11.2,30.30,NE,52,1.0,3.0,79,0.00,,,0.00,LWC V2.10 B1813,2013-02-13 13:31:00,
2013-02-13 04:36:00,16.4,10.8,30.30,NE,52,1.0,2.0,78,0.00,,,0.00,LWC V2.10 B1813,2013-02-13 13:36:00,
2013-02-13 04:41:00,16.2,10.6,30.30,NE,51,0.0,0.0,78,0.00,,,0.00,LWC V2.10 B1813,2013-02-13 13:41:00,
2013-02-13 04:46:00,16.0,10.7,30.30,NE,51,1.0,3.0,79,0.00,,,0.00,LWC V2.10 B1813,2013-02-13 13:46:00,
2013-02-13 04:51:00,15.8,10.5,30.30,NE,51,1.0,2.0,79,0.00,,,0.00,LWC V2.10 B1813,2013-02-13 13:51:00,
2013-02-13 04:56:00,15.7,10.4,30.30,NE,51,2.0,3.0,79,0.00,,,0.00,LWC V2.10 B1813,2013-02-13 13:56:00,
2013-02-13 05:01:00,15.7,10.4,30.30,NE,51,3.0,3.0,79,0.00,,,0.00,LWC V2.10 B1813,2013-02-13 14:01:00,
2013-02-13 05:06:00,15.7,10.4,30.30,NE,51,0.0,3.0,79,0.00,,,0.00,LWC V2.10 B1813,2013-02-13 14:06:00,
2013-02-13 05:11:00,15.7,10.6,30.30,NE,51,0.0,1.0,80,0.00,,,0.00,LWC V2.10 B1813,2013-02-13 14:11:00,
2013-02-13 05:16:00,15.7,10.6,30.30,NE,51,3.0,3.0,80,0.00,,,0.00,LWC V2.10 B1813,2013-02-13 14:16:00,
2013-02-13 05:21:00,15.5,10.5,30.30,NE,51,2.0,4.0,80,0.00,,,0.00,LWC V2.10 B1813,2013-02-13 14:21:00,
2013-02-13 05:26:00,15.5,10.5,30.30,NE,52,3.0,4.0,80,0.00,,,0.00,LWC V2.10 B1813,2013-02-13 14:26:00,
2013-02-13 05:31:00,15.7,10.6,30.30,NE,51,0.0,2.0,80,0.00,,,0.00,LWC V2.10 B1813,2013-02-13 14:31:00,
2013-02-13 05:36:00,15.9,10.6,30.30,NE,51,0.0,2.0,79,0.00,,,0.00,LWC V2.10 B1813,2013-02-13 14:36:00,
2013-02-13 05:41:00,16.0,10.7,30.30,NE,51,0.0,0.0,79,0.00,,,0.00,LWC V2.10 B1813,2013-02-13 14:41:00,
2013-02-13 05:46:00,16.1,10.8,30.30,NE,51,1.0,2.0,79,0.00,,,0.00,LWC V2.10 B1813,2013-02-13 14:46:00,
2013-02-13 05:51:00,16.2,10.6,30.30,NE,51,0.0,1.0,78,0.00,,,0.00,LWC V2.10 B1813,2013-02-13 14:51:00,
2013-02-13 05:56:00,16.2,10.3,30.29,NE,51,1.0,1.0,77,0.00,,,0.00,LWC V2.10 B1813,2013-02-13 14:56:00,
2013-02-13 06:01:00,16.3,10.4,30.30,NE,51,0.0,0.0,77,0.00,,,0.00,LWC V2.10 B1813,2013-02-13 15:01:00,
2013-02-13 06:06:00,16.4,10.5,30.29,NE,51,2.0,2.0,77,0.00,,,0.00,LWC V2.10 B1813,2013-02-13 15:06:00,
2013-02-13 06:11:00,16.3,10.7,30.29,NE,51,0.0,1.0,78,0.00,,,0.00,LWC V2.10 B1813,2013-02-13 15:11:00,
2013-02-13 06:16:00,16.2,10.6,30.29,NE,51,1.0,2.0,78,0.00,,,0.00,LWC V2.10 B1813,2013-02-13 15:16:00,
2013-02-13 06:21:00,16.2,10.3,30.29,NE,51,1.0,3.0,77,0.00,,,0.00,LWC V2.10 B1813,2013-02-13 15:21:00,
2013-02-13 06:26:00,16.1,10.5,30.29,NE,51,0.0,1.0,78,0.00,,,0.00,LWC V2.10 B1813,2013-02-13 15:26:00,
2013-02-13 06:31:00,16.0,10.4,30.29,NE,51,1.0,1.0,78,0.00,,,0.00,LWC V2.10 B1813,2013-02-13 15:31:00,
2013-02-13 06:36:00,15.8,10.5,30.29,NE,51,2.0,3.0,79,0.00,,,0.00,LWC V2.10 B1813,2013-02-13 15:36:00,
2013-02-13 06:41:00,15.6,10.3,30.29,NE,51,2.0,3.0,79,0.00,,,0.00,LWC V2.10 B1813,2013-02-13 15:41:00,
2013-02-13 06:46:00,15.5,10.2,30.29,NE,51,0.0,1.0,79,0.00,,,0.00,LWC V2.10 B1813,2013-02-13 15:46:00,
2013-02-13 06:51:00,15.7,10.1,30.29,NE,51,1.0,1.0,78,0.00,,,0.00,LWC V2.10 B1813,2013-02-13 15:51:00,
2013-02-13 06:56:00,16.0,10.1,30.29,NE,51,1.0,1.0,77,0.00,,,0.00,LWC V2.10 B1813,2013-02-13 15:56:00,
2013-02-13 07:01:00,16.5,10.3,30.29,NE,51,1.0,2.0,76,0.00,,,0.00,LWC V2.10 B1813,2013-02-13 16:01:00,
2013-02-13 07:06:00,16.9,10.7,30.29,NE,51,1.0,2.0,76,0.00,,,0.00,LWC V2.10 B1813,2013-02-13 16:06:00,
2013-02-13 07:11:00,17.1,10.6,30.29,NE,51,0.0,1.0,75,0.00,,,0.00,LWC V2.10 B1813,2013-02-13 16:11:00,
2013-02-13 07:16:00,17.2,10.7,30.29,NE,51,0.0,1.0,75,0.00,,,0.00,LWC V2.10 B1813,2013-02-13 16:16:00,
2013-02-13 07:21:00,17.2,10.7,30.28,NE,51,3.0,4.0,75,0.00,,,0.00,LWC V2.10 B1813,2013-02-13 16:21:00,
2013-02-13 07:26:00,17.1,10.6,30.28,NE,51,1.0,2.0,75,0.00,,,0.00,LWC V2.10 B1813,2013-02-13 16:26:00,
2013-02-13 07:31:00,17.2,10.7,30.29,NE,51,0.0,0.0,75,0.00,,,0.00,LWC V2.10 B1813,2013-02-13 16:31:00,
2013-02-13 07:36:00,17.2,10.7,30.28,NE,51,0.0,2.0,75,0.00,,,0.00,LWC V2.10 B1813,2013-02-13 16:36:00,
2013-02-13 07:41:00,17.1,10.3,30.28,NE,51,2.0,3.0,74,0.00,,,0.00,LWC V2.10 B1813,2013-02-13 16:41:00,
2013-02-13 07:46:00,17.2,10.4,30.29,NE,51,0.0,0.0,74,0.00,,,0.00,LWC V2.10 B1813,2013-02-13 16:46:00,
2013-02-13 07:51:00,17.2,10.4,30.28,NE,51,0.0,1.0,74,0.00,,,0.00,LWC V2.10 B1813,2013-02-13 16:51:00,
2013-02-13 07:56:00,17.2,10.4,30.28,NE,51,2.0,2.0,74,0.00,,,0.00,LWC V2.10 B1813,2013-02-13 16:56:00,
2013-02-13 08:01:00,17.3,10.5,30.28,NE,51,0.0,2.0,74,0.00,,,0.00,LWC V2.10 B1813,2013-02-13 17:01:00,
2013-02-13 08:06:00,17.3,10.5,30.28,NE,51,0.0,2.0,74,0.00,,,0.00,LWC V2.10 B1813,2013-02-13 17:06:00,
2013-02-13 08:11:00,17.3,10.2,30.28,NE,51,0.0,1.0,73,0.00,,,0.00,LWC V2.10 B1813,2013-02-13 17:11:00,
2013-02-13 08:16:00,17.5,10.3,30.28,NE,51,0.0,3.0,73,0.00,,,0.00,LWC V2.10 B1813,2013-02-13 17:16:00,
2013-02-13 08:21:00,17.7,10.2,30.29,NE,51,0.0,0.0,72,0.00,,,0.00,LWC V2.10 B1813,2013-02-13 17:21:00,
2013-02-13 08:26:00,17.8,10.9,30.29,NE,51,0.0,0.0,74,0.00,,,0.00,LWC V2.10 B1813,2013-02-13 17:26:00,
2013-02-13 08:31:00,17.5,11.0,30.29,NE,51,0.0,0.0,75,0.00,,,0.00,LWC V2.10 B1813,2013-02-13 17:31:00,
2013-02-13 08:36:00,17.0,10.5,30.28,NE,51,0.0,0.0,75,0.00,,,0.00,LWC V2.10 B1813,2013-02-13 17:36:00,
2013-02-13 08:41:00,16.5,10.0,30.28,NE,51,1.0,2.0,75,0.00,,,0.00,LWC V2.10 B1813,2013-02-13 17:41:00,
2013-02-13 08:46:00,16.5,10.0,30.28,NE,46,0.0,4.0,75,0.00,,,0.00,LWC V2.10 B1813,2013-02-13 17:46:00,
2013-02-13 08:51:00,16.9,10.1,30.28,NE,46,0.0,2.0,74,0.00,,,0.00,LWC V2.10 B1813,2013-02-13 17:51:00,
2013-02-13 08:56:00,17.1,10.6,30.28,NE,46,0.0,1.0,75,0.00,,,0.00,LWC V2.10 B1813,2013-02-13 17:56:00,
2013-02-13 09:01:00,17.0,10.8,30.28,NE,46,1.0,1.0,76,0.00,,,0.00,LWC V2.10 B1813,2013-02-13 18:01:00,
2013-02-13 09:06:00,16.8,10.3,30.28,NE,47,2.0,3.0,75,0.00,,,0.00,LWC V2.10 B1813,2013-02-13 18:06:00,
2013-02-13 09:11:00,16.8,10.3,30.29,NE,46,0.0,1.0,75,0.00,,,0.00,LWC V2.10 B1813,2013-02-13 18:11:00,
2013-02-13 09:16:00,17.0,10.8,30.28,NE,46,1.0,4.0,76,0.00,,,0.00,LWC V2.10 B1813,2013-02-13 18:16:00,
2013-02-13 09:21:00,17.0,10.5,30.29,NE,46,2.0,3.0,75,0.00,,,0.00,LWC V2.10 B1813,2013-02-13 18:21:00,
2013-02-13 09:26:00,17.4,10.9,30.29,NE,46,2.0,3.0,75,0.00,,,0.00,LWC V2.10 B1813,2013-02-13 18:26:00,
2013-02-13 09:31:00,17.7,11.1,30.29,NE,46,2.0,3.0,75,0.00,,,0.00,LWC V2.10 B1813,2013-02-13 18:31:00,
2013-02-13 09:36:00,17.6,11.1,30.29,NE,46,0.0,1.0,75,0.00,,,0.00,LWC V2.10 B1813,2013-02-13 18:36:00,
2013-02-13 09:41:00,17.5,11.0,30.29,NE,46,0.0,2.0,75,0.00,,,0.00,LWC V2.10 B1813,2013-02-13 18:41:00,
2013-02-13 09:46:00,17.6,10.8,30.29,NE,46,1.0,1.0,74,0.00,,,0.00,LWC V2.10 B1813,2013-02-13 18:46:00,
2013-02-13 09:51:00,17.8,11.2,30.29,NE,46,0.0,0.0,75,0.00,,,0.00,LWC V2.10 B1813,2013-02-13 18:51:00,
2013-02-13 09:56:00,18.0,11.1,30.29,NE,46,1.0,1.0,74,0.00,,,0.00,LWC V2.10 B1813,2013-02-13 18:56:00,
2013-02-13 10:01:00,18.1,11.2,30.29,NE,47,2.0,3.0,74,0.00,,,0.00,LWC V2.10 B1813,2013-02-13 19:01:00,
2013-02-13 10:06:00,18.4,11.5,30.29,NE,46,1.0,2.0,74,0.00,,,0.00,LWC V2.10 B1813,2013-02-13 19:06:00,
2013-02-13 10:11:00,19.0,11.8,30.29,NE,46,2.0,5.0,73,0.00,,,0.00,LWC V2.10 B1813,2013-02-13 19:11:00,
2013-02-13 10:16:00,19.5,12.0,30.29,NE,46,2.0,3.0,72,0.00,,,0.00,LWC V2.10 B1813,2013-02-13 19:16:00,
2013-02-13 10:21:00,19.9,12.0,30.28,NE,46,2.0,3.0,71,0.00,,,0.00,LWC V2.10 B1813,2013-02-13 19:21:00,
2013-02-13 10:26:00,20.3,12.1,30.29,NE,46,3.0,3.0,70,0.00,,,0.00,LWC V2.10 B1813,2013-02-13 19:26:00,
2013-02-13 10:31:00,20.5,12.3,30.29,NE,46,2.0,2.0,70,0.00,,,0.00,LWC V2.10 B1813,2013-02-13 19:31:00,
2013-02-13 10:36:00,20.7,12.5,30.29,NE,46,0.0,1.0,70,0.00,,,0.00,LWC V2.10 B1813,2013-02-13 19:36:00,
2013-02-13 10:41:00,20.9,12.4,30.29,NE,46,0.0,2.0,69,0.00,,,0.00,LWC V2.10 B1813,2013-02-13 19:41:00,
2013-02-13 10:46:00,20.9,12.4,30.29,NE,46,2.0,2.0,69,0.00,,,0.00,LWC V2.10 B1813,2013-02-13 19:46:00,
2013-02-13 10:51:00,20.8,12.6,30.29,NE,46,0.0,1.0,70,0.00,,,0.00,LWC V2.10 B1813,2013-02-13 19:51:00,
2013-02-13 10:56:00,20.7,12.2,30.29,NE,46,3.0,5.0,69,0.00,,,0.00,LWC V2.10 B1813,2013-02-13 19:56:00,
2013-02-13 11:01:00,21.0,12.1,30.29,NE,46,1.0,3.0,68,0.00,,,0.00,LWC V2.10 B1813,2013-02-13 20:01:00,
2013-02-13 11:06:00,21.7,12.1,30.29,NE,46,4.0,4.0,66,0.00,,,0.00,LWC V2.10 B1813,2013-02-13 20:06:00,
2013-02-13 11:11:00,22.0,12.4,30.29,NE,46,3.0,4.0,66,0.00,,,0.00,LWC V2.10 B1813,2013-02-13 20:11:00,
2013-02-13 11:16:00,21.9,12.0,30.30,NE,50,1.0,3.0,65,0.00,,,0.00,LWC V2.10 B1813,2013-02-13 20:16:00,
2013-02-13 11:21:00,21.6,12.4,30.30,NE,51,1.0,3.0,67,0.00,,,0.00,LWC V2.10 B1813,2013-02-13 20:21:00,
2013-02-13 11:26:00,21.3,12.1,30.30,NE,51,3.0,4.0,67,0.00,,,0.00,LWC V2.10 B1813,2013-02-13 20:26:00,
2013-02-13 11:31:00,21.2,12.0,30.30,NE,49,2.0,5.0,67,0.00,,,0.00,LWC V2.10 B1813,2013-02-13 20:31:00,
2013-02-13 11:36:00,21.5,12.3,30.30,NE,52,2.0,4.0,67,0.00,,,0.00,LWC V2.10 B1813,2013-02-13 20:36:00,
2013-02-13 11:41:00,21.7,12.8,30.30,NE,52,3.0,4.0,68,0.00,,,0.00,LWC V2.10 B1813,2013-02-13 20:41:00,
2013-02-13 11:46:00,21.9,12.7,30.30,NE,49,3.0,4.0,67,0.00,,,0.00,LWC V2.10 B1813,2013-02-13 20:46:00,
2013-02-13 11:51:00,22.2,12.9,30.30,NE,39,2.0,5.0,67,0.00,,,0.00,LWC V2.10 B1813,2013-02-13 20:51:00,
2013-02-13 11:56:00,22.4,13.5,30.30,NE,40,0.0,1.0,68,0.00,,,0.00,LWC V2.10 B1813,2013-02-13 20:56:00,
2013-02-13 12:01:00,22.6,13.7,30.30,NE,40,0.0,1.0,68,0.00,,,0.00,LWC V2.10 B1813,2013-02-13 21:01:00,
2013-02-13 12:06:00,22.7,13.4,30.30,NE,40,0.0,1.0,67,0.00,,,0.00,LWC V2.10 B1813,2013-02-13 21:06:00,
2013-02-13 12:11:00,22.9,13.9,30.30,NE,41,0.0,1.0,68,0.00,,,0.00,LWC V2.10 B1813,2013-02-13 21:11:00,
2013-02-13 12:16:00,23.1,13.8,30.30,NE,41,0.0,1.0,67,0.00,,,0.00,LWC V2.10 B1813,2013-02-13 21:16:00,
2013-02-13 12:21:00,23.6,13.6,30.30,NE,40,2.0,3.0,65,0.00,,,0.00,LWC V2.10 B1813,2013-02-13 21:21:00,
2013-02-13 12:26:00,24.1,13.7,30.30,NE,40,2.0,2.0,64,0.00,,,0.00,LWC V2.10 B1813,2013-02-13 21:26:00,
2013-02-13 12:31:00,24.6,13.8,30.29,NE,40,2.0,2.0,63,0.00,,,0.00,LWC V2.10 B1813,2013-02-13 21:31:00,
2013-02-13 12:36:00,24.9,13.8,30.29,NE,41,2.0,3.0,62,0.00,,,0.00,LWC V2.10 B1813,2013-02-13 21:36:00,
2013-02-13 12:41:00,25.1,14.3,30.29,NE,42,3.0,4.0,63,0.00,,,0.00,LWC V2.10 B1813,2013-02-13 21:41:00,
2013-02-13 12:46:00,25.2,14.0,30.29,NE,38,1.0,4.0,62,0.00,,,0.00,LWC V2.10 B1813,2013-02-13 21:46:00,
2013-02-13 12:51:00,25.3,14.1,30.29,NE,41,0.0,2.0,62,0.00,,,0.00,LWC V2.10 B1813,2013-02-13 21:51:00,
2013-02-13 12:56:00,25.2,16.1,30.29,NE,48,2.0,2.0,68,0.00,,,0.00,LWC V2.10 B1813,2013-02-13 21:56:00,
2013-02-13 13:01:00,25.1,16.4,30.29,NE,47,0.0,2.0,69,0.00,,,0.00,LWC V2.10 B1813,2013-02-13 22:01:00,
2013-02-13 13:06:00,24.8,14.7,30.30,NE,51,3.0,5.0,65,0.00,,,0.00,LWC V2.10 B1813,2013-02-13 22:06:00,
2013-02-13 13:11:00,24.2,14.5,30.29,ENE,58,4.0,4.0,66,0.00,,,0.00,LWC V2.10 B1813,2013-02-13 22:11:00,
2013-02-13 13:16:00,24.0,14.0,30.29,NE,56,2.0,3.0,65,0.00,,,0.00,LWC V2.10 B1813,2013-02-13 22:16:00,
2013-02-13 13:21:00,24.0,13.6,30.29,East,90,0.0,5.0,64,0.00,,,0.00,LWC V2.10 B1813,2013-02-13 22:21:00,
2013-02-13 13:26:00,24.2,13.8,30.30,East,81,3.0,5.0,64,0.00,,,0.00,LWC V2.10 B1813,2013-02-13 22:26:00,
2013-02-13 13:31:00,24.3,13.9,30.29,ENE,61,3.0,5.0,64,0.00,,,0.00,LWC V2.10 B1813,2013-02-13 22:31:00,
2013-02-13 13:36:00,24.4,13.6,30.30,ENE,71,2.0,5.0,63,0.00,,,0.00,LWC V2.10 B1813,2013-02-13 22:36:00,
2013-02-13 13:41:00,24.5,13.7,30.30,ENE,65,1.0,4.0,63,0.00,,,0.00,LWC V2.10 B1813,2013-02-13 22:41:00,
2013-02-13 13:46:00,24.5,13.7,30.30,East,80,2.0,5.0,63,0.00,,,0.00,LWC V2.10 B1813,2013-02-13 22:46:00,
2013-02-13 13:51:00,24.5,13.7,30.30,East,80,0.0,1.0,63,0.00,,,0.00,LWC V2.10 B1813,2013-02-13 22:51:00,
2013-02-13 13:56:00,24.8,14.4,30.29,ENE,74,3.0,3.0,64,0.00,,,0.00,LWC V2.10 B1813,2013-02-13 22:56:00,
2013-02-13 14:01:00,25.3,14.5,30.30,East,82,0.0,3.0,63,0.00,,,0.00,LWC V2.10 B1813,2013-02-13 23:01:00,
2013-02-13 14:06:00,25.7,14.5,30.29,ENE,63,3.0,5.0,62,0.00,,,0.00,LWC V2.10 B1813,2013-02-13 23:06:00,
2013-02-13 14:11:00,25.7,15.2,30.29,ENE,64,4.0,4.0,64,0.00,,,0.00,LWC V2.10 B1813,2013-02-13 23:11:00,
2013-02-13 14:16:00,25.6,14.8,30.29,ENE,60,3.0,3.0,63,0.00,,,0.00,LWC V2.10 B1813,2013-02-13 23:16:00,
2013-02-13 14:21:00,25.6,14.4,30.29,ENE,61,3.0,4.0,62,0.00,,,0.00,LWC V2.10 B1813,2013-02-13 23:21:00,
2013-02-13 14:26:00,25.7,14.5,30.29,ENE,63,3.0,4.0,62,0.00,,,0.00,LWC V2.10 B1813,2013-02-13 23:26:00,
2013-02-13 14:31:00,25.8,14.6,30.29,ENE,75,4.0,4.0,62,0.00,,,0.00,LWC V2.10 B1813,2013-02-13 23:31:00,
2013-02-13 14:36:00,25.7,14.5,30.28,NE,44,3.0,5.0,62,0.00,,,0.00,LWC V2.10 B1813,2013-02-13 23:36:00,
2013-02-13 14:41:00,25.5,14.3,30.28,NE,47,2.0,3.0,62,0.00,,,0.00,LWC V2.10 B1813,2013-02-13 23:41:00,
2013-02-13 14:46:00,25.2,14.0,30.28,NE,51,4.0,4.0,62,0.00,,,0.00,LWC V2.10 B1813,2013-02-13 23:46:00,
2013-02-13 14:51:00,25.1,13.9,30.28,ENE,72,1.0,4.0,62,0.00,,,0.00,LWC V2.10 B1813,2013-02-13 23:51:00,
2013-02-13 14:56:00,25.2,14.4,30.28,ENE,67,2.0,3.0,63,0.00,,,0.00,LWC V2.10 B1813,2013-02-13 23:56:00,
2013-02-13 15:01:00,25.3,14.5,30.28,ENE,65,3.0,3.0,63,0.00,,,0.00,LWC V2.10 B1813,2013-02-14 00:01:00,
2013-02-13 15:06:00,25.4,14.6,30.27,NE,51,4.0,5.0,63,0.00,,,0.00,LWC V2.10 B1813,2013-02-14 00:06:00,
2013-02-13 15:11:00,25.6,14.4,30.27,ENE,63,2.0,3.0,62,0.00,,,0.00,LWC V2.10 B1813,2013-02-14 00:11:00,
2013-02-13 15:16:00,25.6,14.4,30.27,ENE,65,2.0,3.0,62,0.00,,,0.00,LWC V2.10 B1813,2013-02-14 00:16:00,
2013-02-13 15:21:00,25.6,14.4,30.27,ENE,74,2.0,4.0,62,0.00,,,0.00,LWC V2.10 B1813,2013-02-14 00:21:00,
2013-02-13 15:26:00,25.6,14.4,30.27,ENE,75,2.0,3.0,62,0.00,,,0.00,LWC V2.10 B1813,2013-02-14 00:26:00,
2013-02-13 15:31:00,25.6,14.8,30.27,ENE,63,3.0,3.0,63,0.00,,,0.00,LWC V2.10 B1813,2013-02-14 00:31:00,
2013-02-13 15:36:00,25.4,14.6,30.27,ENE,64,2.0,3.0,63,0.00,,,0.00,LWC V2.10 B1813,2013-02-14 00:36:00,
2013-02-13 15:41:00,25.3,14.5,30.27,ENE,68,2.0,3.0,63,0.00,,,0.00,LWC V2.10 B1813,2013-02-14 00:41:00,
2013-02-13 15:46:00,25.2,15.5,30.28,ENE,68,3.0,3.0,66,0.00,,,0.00,LWC V2.10 B1813,2013-02-14 00:46:00,
2013-02-13 15:51:00,25.1,15.4,30.27,ENE,70,4.0,4.0,66,0.00,,,0.00,LWC V2.10 B1813,2013-02-14 00:51:00,
2013-02-13 15:56:00,25.1,14.7,30.27,ENE,77,3.0,5.0,64,0.00,,,0.00,LWC V2.10 B1813,2013-02-14 00:56:00,
2013-02-13 16:01:00,25.2,14.8,30.27,East,80,3.0,5.0,64,0.00,,,0.00,LWC V2.10 B1813,2013-02-14 01:01:00,
2013-02-13 16:06:00,25.3,14.5,30.27,ENE,63,4.0,5.0,63,0.00,,,0.00,LWC V2.10 B1813,2013-02-14 01:06:00,
2013-02-13 16:11:00,25.3,14.9,30.27,ENE,75,4.0,7.0,64,0.00,,,0.00,LWC V2.10 B1813,2013-02-14 01:11:00,
2013-02-13 16:16:00,25.4,14.9,30.27,ENE,69,3.0,4.0,64,0.00,,,0.00,LWC V2.10 B1813,2013-02-14 01:16:00,
2013-02-13 16:21:00,25.6,15.1,30.26,ENE,64,2.0,4.0,64,0.00,,,0.00,LWC V2.10 B1813,2013-02-14 01:21:00,
2013-02-13 16:26:00,25.7,15.2,30.27,ENE,60,3.0,7.0,64,0.00,,,0.00,LWC V2.10 B1813,2013-02-14 01:26:00,
2013-02-13 16:31:00,25.7,15.2,30.27,ENE,69,3.0,5.0,64,0.00,,,0.00,LWC V2.10 B1813,2013-02-14 01:31:00,
2013-02-13 16:36:00,26.0,15.2,30.27,ENE,61,4.0,6.0,63,0.00,,,0.00,LWC V2.10 B1813,2013-02-14 01:36:00,
2013-02-13 16:41:00,26.1,15.3,30.27,ENE,59,4.0,7.0,63,0.00,,,0.00,LWC V2.10 B1813,2013-02-14 01:41:00,
2013-02-13 16:46:00,26.1,15.3,30.27,NE,51,3.0,5.0,63,0.00,,,0.00,LWC V2.10 B1813,2013-02-14 01:46:00,
2013-02-13 16:51:00,26.0,15.2,30.27,ENE,73,5.0,7.0,63,0.00,,,0.00,LWC V2.10 B1813,2013-02-14 01:51:00,
2013-02-13 16:56:00,25.9,15.4,30.27,ENE,73,2.0,5.0,64,0.00,,,0.00,LWC V2.10 B1813,2013-02-14 01:56:00,
2013-02-13 17:01:00,25.8,15.3,30.27,ENE,60,3.0,5.0,64,0.00,,,0.00,LWC V2.10 B1813,2013-02-14 02:01:00,
2013-02-13 17:06:00,25.6,15.1,30.27,East,83,3.0,5.0,64,0.00,,,0.00,LWC V2.10 B1813,2013-02-14 02:06:00,
2013-02-13 17:11:00,25.6,15.1,30.27,ENE,61,4.0,7.0,64,0.00,,,0.00,LWC V2.10 B1813,2013-02-14 02:11:00,
2013-02-13 17:16:00,25.6,15.1,30.27,East,81,5.0,6.0,64,0.00,,,0.00,LWC V2.10 B1813,2013-02-14 02:16:00,
2013-02-13 17:21:00,25.5,15.0,30.27,ENE,60,3.0,8.0,64,0.00,,,0.00,LWC V2.10 B1813,2013-02-14 02:21:00,
2013-02-13 17:26:00,25.4,14.9,30.27,ENE,57,3.0,7.0,64,0.00,,,0.00,LWC V2.10 B1813,2013-02-14 02:26:00,
2013-02-13 17:31:00,25.2,14.8,30.27,East,84,5.0,6.0,64,0.00,,,0.00,LWC V2.10 B1813,2013-02-14 02:31:00,
2013-02-13 17:36:00,25.0,14.6,30.27,ENE,67,3.0,8.0,64,0.00,,,0.00,LWC V2.10 B1813,2013-02-14 02:36:00,
2013-02-13 17:41:00,25.0,14.9,30.27,ENE,64,3.0,7.0,65,0.00,,,0.00,LWC V2.10 B1813,2013-02-14 02:41:00,
2013-02-13 17:46:00,25.0,14.9,30.27,ENE,63,2.0,5.0,65,0.00,,,0.00,LWC V2.10 B1813,2013-02-14 02:46:00,
2013-02-13 17:51:00,25.0,14.9,30.27,ENE,69,4.0,5.0,65,0.00,,,0.00,LWC V2.10 B1813,2013-02-14 02:51:00,
2013-02-13 17:56:00,25.0,14.6,30.27,ENE,78,7.0,7.0,64,0.00,,,0.00,LWC V2.10 B1813,2013-02-14 02:56:00,
2013-02-13 18:01:00,25.1,14.7,30.27,ENE,66,5.0,6.0,64,0.00,,,0.00,LWC V2.10 B1813,2013-02-14 03:01:00,
2013-02-13 18:06:00,25.4,14.9,30.27,NE,49,3.0,7.0,64,0.00,,,0.00,LWC V2.10 B1813,2013-02-14 03:06:00,
2013-02-13 18:11:00,25.5,15.0,30.27,ENE,60,3.0,8.0,64,0.00,,,0.00,LWC V2.10 B1813,2013-02-14 03:11:00,
2013-02-13 18:16:00,25.6,15.1,30.26,NE,56,4.0,7.0,64,0.00,,,0.00,LWC V2.10 B1813,2013-02-14 03:16:00,
2013-02-13 18:21:00,25.6,15.1,30.27,ENE,67,1.0,6.0,64,0.00,,,0.00,LWC V2.10 B1813,2013-02-14 03:21:00,
2013-02-13 18:26:00,25.5,15.0,30.27,ENE,63,2.0,4.0,64,0.00,,,0.00,LWC V2.10 B1813,2013-02-14 03:26:00,
2013-02-13 18:31:00,25.4,14.9,30.27,ENE,72,3.0,5.0,64,0.00,,,0.00,LWC V2.10 B1813,2013-02-14 03:31:00,
2013-02-13 18:36:00,25.3,14.9,30.27,East,86,2.0,5.0,64,0.00,,,0.00,LWC V2.10 B1813,2013-02-14 03:36:00,
2013-02-13 18:41:00,25.4,14.9,30.27,NE,49,3.0,5.0,64,0.00,,,0.00,LWC V2.10 B1813,2013-02-14 03:41:00,
2013-02-13 18:46:00,25.4,14.9,30.27,ENE,65,4.0,8.0,64,0.00,,,0.00,LWC V2.10 B1813,2013-02-14 03:46:00,
2013-02-13 18:51:00,25.4,14.9,30.26,East,80,6.0,7.0,64,0.00,,,0.00,LWC V2.10 B1813,2013-02-14 03:51:00,
2013-02-13 18:56:00,25.5,15.0,30.27,ENE,61,4.0,6.0,64,0.00,,,0.00,LWC V2.10 B1813,2013-02-14 03:56:00,
2013-02-13 19:01:00,25.6,15.1,30.26,East,82,2.0,5.0,64,0.00,,,0.00,LWC V2.10 B1813,2013-02-14 04:01:00,
2013-02-13 19:06:00,25.5,14.7,30.26,ENE,70,3.0,5.0,63,0.00,,,0.00,LWC V2.10 B1813,2013-02-14 04:06:00,
2013-02-13 19:11:00,25.5,14.7,30.26,East,80,2.0,5.0,63,0.00,,,0.00,LWC V2.10 B1813,2013-02-14 04:11:00,
2013-02-13 19:16:00,25.5,14.7,30.26,ENE,59,5.0,5.0,63,0.00,,,0.00,LWC V2.10 B1813,2013-02-14 04:16:00,
2013-02-13 19:21:00,25.4,14.9,30.26,ENE,69,4.0,5.0,64,0.00,,,0.00,LWC V2.10 B1813,2013-02-14 04:21:00,
2013-02-13 19:26:00,25.4,14.9,30.26,ENE,59,3.0,7.0,64,0.00,,,0.00,LWC V2.10 B1813,2013-02-14 04:26:00,
2013-02-13 19:31:00,25.4,14.6,30.26,ENE,61,2.0,7.0,63,0.00,,,0.00,LWC V2.10 B1813,2013-02-14 04:31:00,
2013-02-13 19:36:00,25.4,14.9,30.26,ENE,57,4.0,5.0,64,0.00,,,0.00,LWC V2.10 B1813,2013-02-14 04:36:00,
2013-02-13 19:41:00,25.2,14.4,30.26,ENE,72,5.0,5.0,63,0.00,,,0.00,LWC V2.10 B1813,2013-02-14 04:41:00,
2013-02-13 19:46:00,25.2,14.8,30.26,NE,52,4.0,5.0,64,0.00,,,0.00,LWC V2.10 B1813,2013-02-14 04:46:00,
2013-02-13 19:51:00,25.1,14.7,30.26,NE,47,3.0,4.0,64,0.00,,,0.00,LWC V2.10 B1813,2013-02-14 04:51:00,
2013-02-13 19:56:00,25.1,14.7,30.26,NE,47,4.0,5.0,64,0.00,,,0.00,LWC V2.10 B1813,2013-02-14 04:56:00,
2013-02-13 20:00:00,25.0,14.6,30.26,ENE,63,2.0,5.0,64,0.00,,,0.00,LWC V2.10 B1813,2013-02-14 05:00:00,
2013-02-13 20:05:00,24.9,14.5,30.26,ENE,66,3.0,4.0,64,0.00,,,0.00,LWC V2.10 B1813,2013-02-14 05:05:00,
2013-02-13 20:10:00,24.9,14.5,30.26,ENE,65,4.0,6.0,64,0.00,,,0.00,LWC V2.10 B1813,2013-02-14 05:10:00,
2013-02-13 20:15:00,24.7,14.3,30.26,NE,46,5.0,6.0,64,0.00,,,0.00,LWC V2.10 B1813,2013-02-14 05:15:00,
2013-02-13 20:20:00,24.7,14.3,30.26,NE,52,3.0,7.0,64,0.00,,,0.00,LWC V2.10 B1813,2013-02-14 05:20:00,
2013-02-13 20:25:00,24.6,14.5,30.26,NE,43,3.0,5.0,65,0.00,,,0.00,LWC V2.10 B1813,2013-02-14 05:25:00,
2013-02-13 20:30:00,24.5,14.4,30.26,ENE,58,3.0,5.0,65,0.00,,,0.00,LWC V2.10 B1813,2013-02-14 05:30:00,
2013-02-13 20:35:00,24.5,14.1,30.26,NE,54,2.0,3.0,64,0.00,,,0.00,LWC V2.10 B1813,2013-02-14 05:35:00,
2013-02-13 20:40:00,24.4,14.0,30.26,ENE,67,3.0,4.0,64,0.00,,,0.00,LWC V2.10 B1813,2013-02-14 05:40:00,
2013-02-13 20:45:00,24.5,14.1,30.26,ENE,58,3.0,4.0,64,0.00,,,0.00,LWC V2.10 B1813,2013-02-14 05:45:00,
2013-02-13 20:50:00,24.7,14.3,30.26,ENE,60,4.0,4.0,64,0.00,,,0.00,LWC V2.10 B1813,2013-02-14 05:50:00,
2013-02-13 20:55:00,24.6,14.2,30.26,NE,44,4.0,6.0,64,0.00,,,0.00,LWC V2.10 B1813,2013-02-14 05:55:00,
2013-02-13 21:00:00,24.5,14.4,30.26,NE,45,3.0,4.0,65,0.00,,,0.00,LWC V2.10 B1813,2013-02-14 06:00:00,
2013-02-13 21:05:00,24.5,14.1,30.26,NE,51,3.0,5.0,64,0.00,,,0.00,LWC V2.10 B1813,2013-02-14 06:05:00,
2013-02-13 21:10:00,24.7,14.3,30.26,ENE,62,4.0,5.0,64,0.00,,,0.00,LWC V2.10 B1813,2013-02-14 06:10:00,
2013-02-13 21:15:00,25.0,14.2,30.26,ENE,57,3.0,7.0,63,0.00,,,0.00,LWC V2.10 B1813,2013-02-14 06:15:00,
2013-02-13 21:20:00,25.2,14.4,30.26,ENE,59,2.0,5.0,63,0.00,,,0.00,LWC V2.10 B1813,2013-02-14 06:20:00,
2013-02-13 21:25:00,25.3,14.1,30.26,ENE,69,3.0,4.0,62,0.00,,,0.00,LWC V2.10 B1813,2013-02-14 06:25:00,
2013-02-13 21:30:00,25.3,14.1,30.26,ENE,65,4.0,4.0,62,0.00,,,0.00,LWC V2.10 B1813,2013-02-14 06:30:00,
2013-02-13 21:35:00,25.2,14.0,30.26,ENE,63,2.0,5.0,62,0.00,,,0.00,LWC V2.10 B1813,2013-02-14 06:35:00,
2013-02-13 21:40:00,25.2,14.0,30.26,ENE,58,4.0,5.0,62,0.00,,,0.00,LWC V2.10 B1813,2013-02-14 06:40:00,
2013-02-13 21:45:00,25.0,14.2,30.26,NE,53,4.0,5.0,63,0.00,,,0.00,LWC V2.10 B1813,2013-02-14 06:45:00,
2013-02-13 21:50:00,24.9,13.8,30.26,East,84,2.0,4.0,62,0.00,,,0.00,LWC V2.10 B1813,2013-02-14 06:50:00,
2013-02-13 21:55:00,24.9,14.1,30.26,ENE,63,2.0,3.0,63,0.00,,,0.00,LWC V2.10 B1813,2013-02-14 06:55:00,
2013-02-13 22:00:00,24.8,13.7,30.26,NE,56,5.0,5.0,62,0.00,,,0.00,LWC V2.10 B1813,2013-02-14 07:00:00,
2013-02-13 22:05:00,24.8,13.7,30.26,ENE,63,3.0,4.0,62,0.00,,,0.00,LWC V2.10 B1813,2013-02-14 07:05:00,
2013-02-13 22:10:00,24.8,13.7,30.26,ENE,65,3.0,4.0,62,0.00,,,0.00,LWC V2.10 B1813,2013-02-14 07:10:00,
2013-02-13 22:15:00,24.8,13.7,30.26,ENE,71,3.0,4.0,62,0.00,,,0.00,LWC V2.10 B1813,2013-02-14 07:15:00,
2013-02-13 22:20:00,24.9,13.8,30.26,ENE,66,4.0,5.0,62,0.00,,,0.00,LWC V2.10 B1813,2013-02-14 07:20:00,
2013-02-13 22:25:00,25.0,13.8,30.26,ENE,64,5.0,7.0,62,0.00,,,0.00,LWC V2.10 B1813,2013-02-14 07:25:00,
2013-02-13 22:30:00,25.3,14.1,30.26,ENE,70,4.0,6.0,62,0.00,,,0.00,LWC V2.10 B1813,2013-02-14 07:30:00,
2013-02-13 22:35:00,25.4,13.9,30.26,ENE,63,4.0,7.0,61,0.00,,,0.00,LWC V2.10 B1813,2013-02-14 07:35:00,
2013-02-13 22:40:00,25.4,13.9,30.26,East,94,2.0,7.0,61,0.00,,,0.00,LWC V2.10 B1813,2013-02-14 07:40:00,
2013-02-13 22:45:00,25.4,13.9,30.26,East,86,5.0,7.0,61,0.00,,,0.00,LWC V2.10 B1813,2013-02-14 07:45:00,
2013-02-13 22:50:00,25.4,13.9,30.26,ENE,61,3.0,8.0,61,0.00,,,0.00,LWC V2.10 B1813,2013-02-14 07:50:00,
2013-02-13 22:55:00,25.4,13.9,30.26,East,84,2.0,3.0,61,0.00,,,0.00,LWC V2.10 B1813,2013-02-14 07:55:00,
2013-02-13 23:00:00,25.3,14.1,30.26,NE,53,2.0,5.0,62,0.00,,,0.00,LWC V2.10 B1813,2013-02-14 08:00:00,
2013-02-13 23:05:00,25.2,13.7,30.26,ENE,59,2.0,6.0,61,0.00,,,0.00,LWC V2.10 B1813,2013-02-14 08:05:00,
2013-02-13 23:10:00,25.2,13.7,30.26,ENE,60,3.0,4.0,61,0.00,,,0.00,LWC V2.10 B1813,2013-02-14 08:10:00,
2013-02-13 23:15:00,25.3,13.8,30.26,ENE,59,2.0,4.0,61,0.00,,,0.00,LWC V2.10 B1813,2013-02-14 08:15:00,
2013-02-13 23:20:00,25.3,13.8,30.26,ENE,61,1.0,1.0,61,0.00,,,0.00,LWC V2.10 B1813,2013-02-14 08:20:00,
2013-02-13 23:25:00,25.1,13.6,30.26,NE,55,3.0,4.0,61,0.00,,,0.00,LWC V2.10 B1813,2013-02-14 08:25:00,
2013-02-13 23:30:00,24.8,13.7,30.26,NE,55,0.0,3.0,62,0.00,,,0.00,LWC V2.10 B1813,2013-02-14 08:30:00,
2013-02-13 23:35:00,24.7,13.6,30.26,NE,56,3.0,3.0,62,0.00,,,0.00,LWC V2.10 B1813,2013-02-14 08:35:00,
2013-02-13 23:40:00,24.7,13.6,30.26,ENE,57,3.0,3.0,62,0.00,,,0.00,LWC V2.10 B1813,2013-02-14 08:40:00,
2013-02-13 23:45:00,24.7,13.6,30.26,NE,56,1.0,3.0,62,0.00,,,0.00,LWC V2.10 B1813,2013-02-14 08:45:00,
2013-02-13 23:50:00,24.5,13.7,30.26,NE,44,4.0,4.0,63,0.00,,,0.00,LWC V2.10 B1813,2013-02-14 08:50:00,
2013-02-13 23:55:00,24.4,14.0,30.26,NE,41,2.0,4.0,64,0.00,,,0.00,LWC V2.10 B1813,2013-02-14 08:55:00,